Offutt Air Force Base, NE

8:23 AM CST on February 12, 2016 (GMT -0600)
Offutt Air Force Base

Weather History for KOFF - November, 2013

Change the Weather History Date:

Saturday, November 9, 2013

  Actual Average Record
Temperature  
Mean Temperature 48 °F -  
Max Temperature 60 °F 50 °F 71 °F (2010)
Min Temperature 37 °F 32 °F 19 °F (2000)
Degree Days  
Heating Degree Days 16    
Moisture  
Dew Point 34 °F    
Average Humidity 62    
Maximum Humidity 93    
Minimum Humidity 37    
Precipitation  
Precipitation 0.00 in - - ()
Sea Level Pressure  
Sea Level Pressure 30.16 in    
Wind  
Wind Speed 7 mph (WNW)    
Max Wind Speed 13 mph    
Max Gust Speed -    
Visibility 10 miles    
Events      
Averages and records for this station are not official NWS values.
T = Trace of Precipitation, MM = Missing Value Source: NWS Daily Summary

Daily Weather History Graph

Daily Weather History Graph

Search for Another Location

Airport or City:

Trip Planner

Search our weather history database for the weather conditions in past years. The results will help you decide how hot, cold, wet, or windy it might be!

Date:

Astronomy

Nov. 09, 2013 Rise Set
Actual Time 7:04 AM CST 5:09 PM CST
Civil Twilight 6:35 AM CST 5:39 PM CST
Nautical Twilight 6:02 AM CST 6:12 PM CST
Astronomical Twilight 5:30 AM CST 6:44 PM CST
Moon 12:41 PM CST (11/9) 11:42 PM CST (11/9)
Length of Visible Light 11h 03m
Length of Day
10h 05m
Waxing Crescent, 44% of the Moon is Illuminated
Nov 9
Waxing Crescent
Nov 9
First Quarter
Nov 17
Full
Nov 25
Last Quarter
Dec 2
New

Hourly Weather History & Observations

Time (CST) Temp. Windchill Dew Point Humidity Pressure Visibility Wind Dir Wind Speed Gust Speed Precip Events Conditions
12:58 AM 38.1 °F 35.7 °F 36.1 °F 93% 29.94 in 10.0 mi West 3.5 mph - N/A   Clear
1:58 AM 42.3 °F 39.4 °F 35.6 °F 77% 29.94 in 10.0 mi WNW 4.6 mph - N/A   Clear
2:58 AM 38.7 °F 36.3 °F 34.9 °F 86% 29.98 in 10.0 mi WNW 3.5 mph - N/A   Clear
3:58 AM 37.2 °F 31.2 °F 34.0 °F 88% 29.99 in 10.0 mi WNW 8.1 mph - N/A   Clear
4:58 AM 37.6 °F 34.0 °F 32.7 °F 83% 30.02 in 10.0 mi WNW 4.6 mph - N/A   Clear
5:58 AM 37.8 °F 31.8 °F 32.7 °F 82% 30.05 in 10.0 mi WNW 8.1 mph - N/A   Clear
6:58 AM 40.6 °F 34.3 °F 32.2 °F 72% 30.08 in 10.0 mi West 10.4 mph - N/A   Clear
7:58 AM 45.1 °F 40.3 °F 34.2 °F 65% 30.10 in 10.0 mi WNW 9.2 mph - N/A   Clear
8:58 AM 48.6 °F - 34.5 °F 58% 30.14 in 10.0 mi West 6.9 mph - N/A   Clear
9:58 AM 52.7 °F - 34.2 °F 49% 30.16 in 10.0 mi WNW 9.2 mph - N/A   Clear
10:58 AM 55.0 °F - 34.3 °F 46% 30.17 in 10.0 mi WNW 11.5 mph - N/A   Clear
11:58 AM 56.8 °F - 34.7 °F 43% 30.18 in 10.0 mi NW 12.7 mph - N/A   Clear
12:58 PM 58.8 °F - 35.2 °F 41% 30.17 in 10.0 mi West 9.2 mph - N/A   Clear
1:58 PM 60.4 °F - 34.9 °F 38% 30.16 in 10.0 mi West 10.4 mph - N/A   Clear
2:58 PM 60.8 °F - 34.0 °F 37% 30.17 in 10.0 mi NW 10.4 mph - N/A   Clear
3:58 PM 59.0 °F - 34.5 °F 40% 30.19 in 10.0 mi WNW 12.7 mph - N/A   Clear
4:58 PM 52.3 °F - 35.4 °F 53% 30.21 in 10.0 mi NW 5.8 mph - N/A   Clear
5:58 PM 47.7 °F - 34.5 °F 60% 30.25 in 10.0 mi West 2.3 mph - N/A   Clear
6:58 PM 50.2 °F - 35.1 °F 56% 30.26 in 10.0 mi NW 6.9 mph - N/A   Clear
7:58 PM 48.4 °F - 33.4 °F 56% 30.29 in 10.0 mi NNW 3.5 mph - N/A   Clear
8:58 PM 44.6 °F - 33.1 °F 64% 30.32 in 10.0 mi WNW 1.2 mph - N/A   Clear
9:58 PM 38.7 °F 35.2 °F 32.9 °F 80% 30.34 in 10.0 mi North 4.6 mph - N/A   Clear
10:58 PM 45.3 °F 40.6 °F 32.9 °F 62% 30.35 in 10.0 mi North 9.2 mph - N/A   Clear
11:58 PM 42.3 °F 38.6 °F 32.4 °F 68% 30.38 in 10.0 mi North 5.8 mph - N/A   Partly Cloudy